Regional Weather Roundup
Issued by NWS Northern Indiana

Home | Current Version | Previous Version | Text Only | Print | Product List | Glossary Off
Versions: 1 2 3 4 5 6 7 8 9 10 11 12 13 14 15 16 17 18 19 20 21 22 23 24 25 26 27 28 29 30 31 32 33 34 35 36 37 38 39 40 41 42 43 44 45 46 47 48 49 50

000
ASUS43 KIWX 190200
RWRIWX

KIWX WEATHER ROUNDUP
NATIONAL WEATHER SERVICE NORTHERN INDIANA
1000 PM EDT SAT APR 18 2015

NOTE: "FAIR" INDICATES FEW OR NO CLOUDS BELOW 12,000 FEET WITH NO
SIGNIFICANT WEATHER AND/OR OBSTRUCTIONS TO VISIBILITY.

* THESE STATIONS ARE NOT UNDER NWS QUALITY CONTROL. THEY ALSO MAY NOT
  REPORT WEATHER SUCH AS PRECIPITATION OR FOG.

INZ001>027-190300-
NORTHERN INDIANA

CITY           SKY/WX    TMP DP  RH WIND       PRES   REMARKS
GARY*          CLOUDY    45  34  65 N6        30.03R
SOUTH BEND     CLOUDY    66  38  35 E17G28    30.03R
GOSHEN         CLOUDY    60  31  33 E18G26    30.05R
ANGOLA*        CLEAR     57  25  28 E13       30.09R
FORT WAYNE     CLOUDY    58  34  40 E20G26    30.06R

$$
INZ028>050-190300-
CENTRAL INDIANA

CITY           SKY/WX    TMP DP  RH WIND       PRES   REMARKS
LAFAYETTE      PTCLDY    62  49  62 CALM      29.96R
KOKOMO*        PTCLDY    64  48  55 E21G26    29.99R
MUNCIE*        MOCLDY    66  50  56 E14       30.01R
INDIANAPOLIS   MOCLDY    69  46  43 E8        29.95S

$$
MIZ043>046-050>051-056>058-064>065-071>073-077>080-190300-
SOUTHWEST LOWER MICHIGAN

CITY           SKY/WX    TMP DP  RH WIND       PRES   REMARKS
BATTLE CREEK   PTCLDY    60  25  26 E14G21    30.09R
BENTON HARBOR  MOCLDY    62  31  31 E13G21    30.03R
COLDWATER*     MOCLDY    59  31  35 E9        30.08R
HILLSDALE*     MOCLDY    58  21  24 E9        30.10R
HOLLAND        CLEAR     58  26  29 E13       30.08R
GRAND RAPIDS   PTCLDY    54  26  34 E17       30.10R
KALAMAZOO      PTCLDY    62  28  27 E8        30.08R
STURGIS*       MOCLDY    61  36  39 E3G18     30.07R
THREE RIVERS*  FAIR      62  37  40 E9        30.07R

$$
OHZ001>008-015>018-024>025-190300-
NORTHWEST OHIO

CITY           SKY/WX    TMP DP  RH WIND       PRES   REMARKS
DEFIANCE       CLOUDY    57  24  28 E8        30.08R
FINDLAY        CLOUDY    57  33  40 NE14      30.08R
TOLEDO EXPRESS MOCLDY    55  30  38 E13       30.11R
TOLEDO METCALF MOCLDY    53  36  52 NE9       30.13R
LIMA           MOCLDY    59  36  42 NE12      30.06R

$$
AND FOR LAKE MICHIGAN COASTAL AND OPEN LAKE BUOY OBSERVATIONS

STATION/POSITION TEMP    WIND        PRES    VSBY  WAVE
                 AIR SEA DIR/SP/G                  HT/PER
                 (F)     (DEG/KT/KT) (MB)    (MI)  (FT/S)
CALUMET HARBOR    44     330/ 10/ 13   N/A
MICHIGAN CITY     42     260/  6/  7   N/A
BURNS HARBOR      42     320/  6/  8 1016.9F
SAINT JOSEPH      65      40/  3/  8 1017.3R
MICHIGAN CITY     41 46  290/  4/  6   N/A           4/ 6

$$
&&


USA.gov is the U.S. government's official web portal to all federal, state and local government web resources and services.